Location: Riverside Cemetery
(38.3047°N, 99.7773°W)
Time: 07:12:28
(UTC+00:00)

Cosmos 858 Rocket - Pass Details

Date: 19 September 2020
Orbit: 756 x 774 km, 74.1° (Epoch: 22 October)

Event Time Altitude Azimuth Distance (km) Brightness Sun altitude
Rises 11:44:09 0° 339° (NNW) 3,219 7.6 -8.8°
Reaches altitude 10° 11:46:32 10° 337° (NNW) 2,290 6.8 -8.3°
Maximum altitude 11:51:42 73° 254° (WSW) 795 4.4 -7.3°
Drops below altitude 10° 11:56:51 10° 171° (S) 2,280 7.0 -6.3°
Sets 11:59:13 0° 169° (S) 3,204 7.8 -5.8°
